Regional Weather Roundup
Issued by NWS

Home | Current Version | Previous Version | Text Only | Print | Product List | Glossary On
Versions: 1 2 3 4 5 6 7 8 9 10 11 12 13 14 15 16 17 18 19 20 21 22 23 24 25 26 27 28 29 30 31 32 33 34 35 36 37 38 39 40 41 42 43 44 45 46 47 48 49 50
000
ASUS43 KLSX 221657
RWRMO

WEATHER SUMMARY FOR MISSOURI
NATIONAL WEATHER SERVICE SPRINGFIELD MO
1200 PM CDT THU JUN 22 2017

NOTE: "FAIR" INDICATES FEW OR NO CLOUDS BELOW 12,000 FEET WITH NO
       SIGNIFICANT WEATHER AND/OR OBSTRUCTIONS TO VISIBILITY.
       CURRENT SKY AND/OR WEATHER CONDITIONS ARE NOT AVAILABLE FOR
       CHILLICOTHE AND FARMINGTON.

MOZ001>031-035>038-043-044-053-054-221800-
...NORTHERN AND WESTERN MISSOURI...

CITY           SKY/WX    TMP DP  RH WIND       PRES   REMARKS
KANSAS CTY INT MOSUNNY   83  71  67 S14       29.74F
LEE`S SUMMIT   PTSUNNY   82  71  69 S15       29.77S
ST JOSEPH      CLOUDY    82  69  64 S16       29.71F
CHILLICOTHE      N/A     84  72  67 S8        29.75S

$$
MOZ066>068-077>081-088>096-101>105-221800-
...SOUTHWEST MISSOURI...

CITY           SKY/WX    TMP DP  RH WIND       PRES   REMARKS
SPRINGFIELD    CLOUDY    79  72  79 SE12      29.81F
JOPLIN         PTSUNNY   84  74  71 SW8       29.78F HX  91
BRANSON        CLOUDY    77  72  83 SE12      29.83F

$$
MOZ032>034-039>042-045>050-055>058-069>072-221800-
...CENTRAL MISSOURI...

CITY           SKY/WX    TMP DP  RH WIND       PRES   REMARKS
COLUMBIA       NOT AVBL
JEFFERSON CITY CLOUDY    80  70  71 S13       29.80F
ROLLA          CLOUDY    79  72  79 S13       29.83F
SEDALIA        CLOUDY    80  74  81 S14       29.80F
WARRENSBURG    CLOUDY    81  68  65 S9        29.77S

$$
MOZ051-052-059>065-221800-
...EAST CENTRAL MISSOURI...

CITY           SKY/WX    TMP DP  RH WIND       PRES   REMARKS
ST LOUIS INTL  CLOUDY    83  70  64 S14       29.84F

$$
MOZ072>076-082>087-097>100-106>115-221800-
...SOUTH CENTRAL AND SOUTHEAST MISSOURI...

CITY           SKY/WX    TMP DP  RH WIND       PRES   REMARKS
CAPE GIRARDEAU LGT RAIN  74  72  93 S9        29.87S FOG
FARMINGTON     CLOUDY    73  72  94 SE10      29.89F FOG
POPLAR BLUFF   CLOUDY    78  74  87 SE8       29.85F
WEST PLAINS    CLOUDY    76  71  85 SE9       29.86F

$$



USA.gov is the U.S. government's official web portal to all federal, state and local government web resources and services.